Helicity
35 44 54 70 93 117 130 160 160 161 129 123 162 117 30 53 94 107 91 55 51 67 64 59 36 71 137 103 89 89 60 75 101 86 63 74 72 55 43 52 66 139 92 76 86 68 89
40 30 18 33 41 77 107 122 126 139 195 213 231 158 232 87 135 129 74 38 48 80 49 68 60 107 128 65 89 66 61 52 65 67 61 68 63 53 41 57 67 61 23 41 260 123 47
30 33 27 26 50 43 21 58 99 111 120 167 228 266 139 160 139 146 64 49 61 63 91 53 77 100 116 55 84 80 81 106 82 48 48 53 24 52 41 72 13 -14 -15 -32 227 60 24
44 54 36 38 67 108 107 100 77 74 100 110 126 224 148 182 113 136 85 50 71 106 95 82 71 108 90 76 66 72 129 78 -2 14 41 -16 -44 -17 79 -18 3 21 13 44 52 87 27
66 60 70 65 71 84 74 83 68 62 77 94 114 129 149 175 101 129 98 52 57 91 80 82 96 93 46 54 79 69 98 23 -8 -4 -31 -15 -42 6 7 20 20 -5 108 44 4 1 -7
73 54 58 62 89 92 103 92 83 87 73 53 102 106 107 130 157 150 112 48 87 85 117 128 139 61 41 52 63 37 25 -3 -1 -7 -4 -11 1 12 1 -9 37 27 82 56 -23 -39 -58
60 63 81 83 99 116 107 105 106 98 92 92 86 74 184 55 170 155 108 81 52 75 125 131 135 65 56 64 51 38 30 28 23 19 -28 5 4 29 6 65 73 23 10 8 12 -13 -66
61 50 65 74 110 120 123 119 104 98 83 75 64 49 129 145 150 120 81 63 112 95 84 84 52 36 29 64 49 29 46 11 24 3 17 -0 -6 -36 33 53 60 52 2 36 53 -3 -10
46 52 58 62 68 94 133 150 134 113 85 81 91 57 70 152 103 80 49 64 107 73 120 70 63 44 39 82 48 43 47 6 20 19 24 8 23 27 39 97 30 32 -4 33 15 -13 -33
45 45 60 66 79 86 86 89 85 99 88 70 58 82 46 153 78 99 81 40 105 27 20 22 19 10 45 30 39 40 51 31 44 25 35 34 12 66 -1 46 42 9 -20 -3 -16 61 15
44 41 58 82 94 81 31 20 24 34 48 51 43 47 14 67 28 89 60 122 29 63 -90 49 41 22 21 26 31 51 30 28 78 63 54 34 42 13 29 7 23 17 14 32 24 42 25
48 43 62 45 36 45 13 8 25 22 12 16 39 20 57 -75 9 92 96 126 35 8 -149 23 48 19 4 16 34 45 40 59 52 32 -0 25 32 36 34 12 53 84 66 99 69 27 156
57 65 97 60 35 31 -1 3 24 27 15 7 1 33 57 -87 -26 65 128 117 -24 -102 97 28 31 10 -17 -39 -0 16 10 30 38 51 33 16 45 62 83 44 57 67 40 66 60 101 24
81 130 60 27 33 20 -6 11 25 24 18 21 12 28 65 -69 81 101 142 195 -106 -69 61 27 35 37 -20 7 35 17 1 60 97 121 83 58 60 58 53 36 26 57 114 74 113 72 27
102 107 59 24 22 13 -7 17 15 6 4 -10 7 -69 -61 11 136 151 145 -11 -103 -37 49 47 59 16 -25 34 37 8 18 53 60 61 52 44 22 81 58 8 57 75 115 104 75 123 78
109 109 47 20 14 -11 -0 10 -10 16 -0 -9 -77 177 103 128 151 173 145 -17 11 105 -32 20 -11 -27 -44 57 27 14 19 28 36 59 41 61 22 85 47 33 10 54 89 92 103 112 96
103 88 30 9 -18 -2 9 8 8 29 -8 -25 5 162 43 148 194 191 19 -6 70 123 -78 -17 -54 -5 65 62 36 19 26 43 51 50 35 5 11 37 11 32 64 34 46 90 53 85 78
92 66 28 -9 -5 3 7 11 24 20 8 -56 41 251 91 93 171 110 5 4 72 26 -64 -52 -39 -10 56 72 45 31 20 47 59 66 19 18 -1 7 17 37 57 33 47 27 76 93 85
97 61 26 -21 -8 2 24 19 28 18 -3 -46 158 231 71 91 52 27 35 48 70 -9 -31 -29 -45 38 68 64 51 43 39 52 42 36 31 34 36 19 26 30 23 47 52 32 44 62 52
107 50 23 -19 -7 16 21 31 30 16 -20 -77 96 213 103 40 64 37 14 -38 -35 -6 5 3 -8 51 51 78 69 54 31 47 40 24 36 20 18 27 13 13 16 31 35 29 34 41 45
91 46 7 -14 8 36 26 27 23 2 -37 -113 32 139 77 13 -2 2 11 -37 -31 -13 -10 8 -28 -33 -34 -20 52 57 56 48 56 60 33 18 21 28 20 24 15 12 4 9 31 17 52
72 37 -15 11 31 20 24 24 5 21 -30 9 68 94 43 60 37 24 -15 -23 -43 -5 -14 -12 -38 -34 -38 -65 -53 -29 -17 15 13 63 42 28 29 28 45 32 11 -8 10 10 17 22 39
56 35 11 23 19 10 13 11 6 15 -28 28 20 47 42 48 72 70 88 -35 -3 -2 -4 -12 -40 -38 -43 -36 -13 -16 23 20 -13 -21 3 -9 -9 3 24 35 37 31 1 -5 5 21 26
53 29 28 20 18 19 35 24 19 38 43 3 24 16 24 46 57 48 12 8 -11 -14 -6 16 -4 -29 7 -15 1 42 2 -35 -33 26 -9 -48 -15 -9 -7 -9 -13 -0 5 8 -4 4 16
43 33 28 15 21 34 49 24 43 70 85 -5 14 19 28 22 22 31 36 -5 -12 -21 4 16 4 33 7 14 -39 -68 -52 -84 -46 1 -3 -41 -47 -49 -73 -58 -32 -40 -32 -53 -64 -53 -60
33 31 23 19 44 54 36 71 101 137 -11 8 3 50 40 -13 34 32 10 -11 5 -7 33 44 57 55 21 -8 -46 -38 -38 -50 -67 -72 7 -25 -55 -74 -68 -78 -56 -44 -22 -58 -81 -78 -35
41 33 41 59 69 68 69 68 46 52 -8 57 36 44 21 29 32 22 36 5 -5 8 23 31 43 32 19 -12 -32 -45 -25 -52 21 12 -39 -64 -79 -48 -38 -27 -38 -50 -33 -40 -45 -37 -51
51 27 82 94 104 87 79 96 4 1 2 31 49 34 3 32 45 39 44 36 44 23 16 32 48 34 -3 -2 21 -19 -31 -12 -13 -10 -5 11 18 16 -5 -13 -10 -32 61 -12 21 62 47
43 21 95 113 144 85 118 46 -20 36 7 46 58 63 8 7 25 46 67 68 78 72 42 80 -1 16 -30 -42 -14 -25 -16 -25 -5 3 -23 12 4 1 27 10 23 19 25 41 50 73 76
Wind_Speed
80 82 83 83 81 79 79 83 85 85 85 83 84 79 48 44 45 51 50 53 58 51 52 48 49 49 46 55 58 43 44 40 36 36 40 37 37 37 38 33 36 35 42 64 85 90 89
82 82 83 84 80 82 82 83 82 86 85 84 80 73 72 65 42 44 47 50 53 54 52 45 44 41 47 63 38 34 38 37 33 32 35 30 28 36 36 39 28 48 75 96 83 88 86
83 84 83 84 83 82 83 82 83 86 86 85 82 83 80 89 38 41 45 52 54 52 48 44 38 40 48 48 34 33 37 35 28 24 30 25 30 20 43 37 38 64 59 71 89 84 74
86 84 82 84 83 84 86 85 87 88 85 86 85 85 84 93 33 39 47 50 49 48 45 36 35 36 48 31 31 35 35 32 22 18 21 44 40 36 13 40 43 56 55 60 61 76 70
87 86 85 84 84 85 84 87 87 88 90 88 87 87 87 87 34 39 46 50 48 43 38 30 34 36 48 34 38 36 35 32 23 15 42 40 37 38 29 44 52 48 62 72 64 69 69
87 86 86 85 84 86 87 88 88 87 89 88 89 88 90 82 34 40 45 50 46 36 36 32 33 41 33 42 38 37 35 30 27 17 36 37 38 37 39 52 51 54 61 57 65 66 72
87 87 88 86 87 89 89 89 87 86 90 90 92 87 90 57 32 37 43 39 46 47 32 32 33 34 36 34 35 36 33 33 28 33 26 36 37 34 38 59 52 54 49 52 55 53 66
87 85 88 84 88 87 89 88 87 88 90 90 92 86 87 71 37 37 38 45 44 40 55 22 23 20 27 30 40 34 28 33 28 18 31 33 36 35 30 37 45 49 51 41 31 38 47
85 85 84 85 87 88 90 91 90 89 88 90 90 84 78 81 43 43 42 41 32 32 49 43 22 23 25 26 34 33 30 29 35 32 34 31 32 34 25 31 43 48 62 55 46 38 35
87 85 86 87 89 91 92 91 91 91 90 89 86 85 77 80 53 44 45 32 27 28 54 43 26 24 28 28 30 32 34 35 34 30 30 30 31 37 25 27 39 54 51 55 51 43 48
84 85 88 89 91 92 92 89 90 90 90 90 88 84 79 78 52 44 36 20 17 31 51 29 27 28 29 30 32 32 36 37 31 37 34 27 21 25 29 29 33 48 44 44 42 37 35
83 85 86 90 90 88 87 87 88 90 90 91 91 84 78 63 53 44 20 15 25 43 43 28 26 25 28 36 34 34 35 35 32 31 35 38 32 31 31 19 19 22 28 26 26 30 41
83 87 88 89 83 84 83 87 86 87 92 94 93 90 78 66 58 35 22 22 49 46 32 21 24 23 29 24 12 33 34 32 35 40 43 39 23 21 23 12 11 33 45 38 34 33 36
84 90 87 82 79 79 79 83 81 84 86 91 91 91 79 78 51 30 32 41 53 45 22 26 24 25 28 18 27 28 28 29 37 32 30 23 15 14 21 23 23 26 32 34 40 31 24
86 88 86 79 76 75 77 80 84 81 55 55 68 76 74 57 37 32 48 65 51 49 16 18 23 22 23 25 31 28 27 28 25 27 21 15 9 20 9 14 25 26 17 25 26 22 24
86 86 81 80 74 73 76 71 76 63 56 56 54 47 46 30 32 40 63 60 48 31 22 19 21 21 33 42 31 26 25 26 22 27 28 30 8 16 18 18 13 15 22 23 23 31 30
85 82 77 75 71 74 63 52 67 60 53 43 32 22 36 29 33 61 71 56 46 15 21 20 20 20 37 47 34 27 30 27 25 22 25 15 19 22 17 18 22 20 18 20 18 25 35
81 78 74 70 70 66 47 64 61 53 50 29 23 26 31 34 61 61 64 52 39 44 17 22 22 12 46 41 31 26 32 35 25 24 17 18 13 16 20 23 26 24 23 22 25 25 20
79 75 71 69 69 60 39 63 51 47 45 30 23 27 36 50 64 68 50 48 40 39 27 25 35 42 38 43 40 27 30 27 23 22 26 26 20 16 19 24 27 25 24 17 15 18 19
76 71 69 67 65 36 56 59 49 48 40 24 27 34 41 52 39 54 54 46 46 38 41 38 46 41 48 49 29 31 22 23 25 24 18 21 19 19 17 20 24 27 25 23 22 25 21
73 70 66 65 39 33 57 55 51 45 32 29 32 38 38 58 58 47 48 41 46 39 42 43 47 51 58 57 46 40 34 27 24 27 25 22 21 17 15 17 20 22 24 24 24 19 28
69 67 64 45 26 41 53 52 49 42 39 30 39 39 38 41 50 53 47 42 43 45 44 51 52 55 55 56 52 56 52 47 42 32 29 25 35 29 23 22 22 21 26 26 28 25 28
66 64 53 25 33 48 50 51 46 41 31 33 35 37 39 39 43 48 52 45 44 42 38 48 52 55 54 52 45 46 34 34 40 41 42 37 38 38 37 30 29 24 27 24 26 28 26
62 56 37 24 37 48 47 45 41 39 39 41 43 42 44 45 42 41 40 55 46 41 45 47 49 52 48 53 30 25 36 37 34 35 39 41 39 37 38 35 39 35 31 32 41 36 36
61 47 25 30 40 44 42 39 37 39 45 43 39 47 44 40 38 40 43 51 43 42 43 50 46 48 56 47 50 47 42 41 36 34 37 39 42 39 39 37 34 34 35 36 35 35 38
57 38 23 33 41 38 33 37 34 32 34 38 40 36 40 37 33 34 44 49 47 49 46 47 43 49 45 47 44 46 46 43 41 40 34 40 39 39 37 36 35 34 35 38 37 28 40
48 19 33 36 37 33 33 34 38 35 39 36 34 34 34 34 34 35 39 46 41 45 48 48 51 45 45 44 44 42 42 40 41 42 42 41 39 38 37 32 31 38 36 35 25 26 25
37 37 34 37 37 34 38 38 38 42 51 35 27 26 32 32 31 35 34 37 40 45 51 52 49 43 47 44 44 41 40 41 38 38 38 40 39 36 34 29 25 28 20 20 13 26 22
25 41 38 37 36 37 41 25 36 48 11 28 27 23 19 24 32 32 29 26 31 38 40 46 45 50 46 43 40 41 38 40 38 33 34 32 33 30 30 26 22 22 21 22 22 23 23
Wind_Direction
353 350 349 348 350 348 346 340 334 330 328 326 326 326 317 317 321 327 334 336 336 346 346 343 342 346 348 334 327 344 346 346 351 351 341 337 327 324 313 308 298 274 270 247 238 234 233
351 349 349 348 350 348 348 343 340 335 332 328 324 326 323 318 315 324 331 335 339 342 344 346 346 351 342 328 355 3 359 354 351 352 346 345 337 331 319 309 297 269 236 217 227 229 230
351 350 348 347 349 349 346 344 342 339 335 330 324 319 316 310 308 317 326 330 334 342 347 348 354 350 338 334 5 5 353 348 352 357 351 354 292 320 320 326 201 230 229 227 226 225 224
349 350 350 348 349 349 346 345 341 337 337 333 327 320 314 307 307 314 323 329 337 343 347 356 359 357 339 8 10 1 4 5 15 19 9 235 223 209 143 219 234 219 225 224 219 217 222
349 350 350 349 349 347 346 342 342 338 330 332 327 321 314 309 310 315 321 326 334 344 349 0 0 355 341 17 5 14 15 7 22 45 228 232 215 203 203 224 213 220 217 213 213 212 218
350 349 347 348 347 345 344 342 340 339 332 327 327 323 316 304 305 314 320 323 334 349 354 5 6 352 1 360 13 21 30 42 46 162 220 206 224 223 204 205 223 210 206 203 201 210 213
350 349 347 347 345 343 342 340 340 338 331 327 324 322 320 314 310 315 322 329 327 332 346 343 358 357 6 21 29 23 39 42 72 200 354 191 191 222 237 205 217 207 206 204 215 224 217
348 348 346 346 344 343 341 340 339 334 330 326 323 320 317 321 312 315 322 313 321 337 325 340 344 1 14 30 13 30 50 33 112 219 203 199 209 186 208 198 206 202 196 204 205 220 225
348 347 346 345 343 341 339 337 335 333 330 326 322 319 320 318 306 307 310 309 335 349 327 343 2 14 30 50 32 43 85 93 198 205 195 206 211 190 220 221 202 200 191 197 200 204 210
348 347 345 343 341 340 338 335 333 330 327 324 321 318 313 312 298 299 300 313 329 355 308 335 15 34 50 81 103 130 133 154 195 206 198 211 216 199 232 225 217 197 203 195 197 211 209
348 347 345 343 341 340 338 336 333 329 325 320 316 312 304 303 290 288 303 328 349 341 267 3 23 65 66 75 148 136 146 151 193 161 160 200 237 231 228 236 228 204 210 213 220 226 231
347 345 345 344 342 343 340 339 336 330 324 316 309 308 300 296 280 287 304 322 320 274 240 355 29 44 67 193 173 157 152 169 192 170 166 156 184 202 192 216 234 212 201 209 228 238 233
347 346 345 344 345 344 344 342 339 333 324 314 304 299 288 280 268 274 280 279 243 215 320 16 18 56 81 52 177 169 160 172 160 147 145 148 193 223 201 202 262 197 191 204 217 230 235
349 348 346 345 345 345 345 345 343 339 333 310 304 290 275 264 254 250 250 253 206 218 346 15 33 67 80 273 225 200 192 180 147 172 164 161 192 242 269 221 209 211 216 222 216 225 236
349 348 348 347 347 347 347 346 343 339 292 291 294 293 266 242 231 227 230 207 201 222 24 36 53 68 78 250 222 212 201 204 206 183 207 213 245 198 280 262 230 224 235 233 214 228 230
348 349 349 350 349 350 349 350 304 298 297 301 299 280 239 213 212 218 218 206 222 289 4 46 54 76 116 214 221 226 226 221 247 193 204 186 255 208 217 227 259 246 255 231 239 224 230
349 349 350 351 352 352 354 299 302 299 301 298 289 244 218 209 207 211 200 207 228 301 350 51 50 71 224 205 220 222 210 207 202 208 194 277 256 219 244 237 228 252 261 262 260 249 226
349 350 351 353 354 355 357 301 301 299 303 285 248 214 229 204 198 207 197 208 247 227 59 27 59 37 209 217 227 230 203 180 197 203 252 262 292 248 246 254 269 291 280 281 253 247 266
350 351 352 353 356 358 307 302 298 299 304 285 251 217 214 203 188 189 207 217 223 200 118 95 124 212 221 215 211 229 214 215 219 217 198 199 229 248 266 273 278 289 286 308 315 289 278
351 352 354 355 356 352 298 301 295 299 299 268 231 192 198 203 209 194 189 187 187 193 175 166 177 211 199 204 237 231 252 258 229 208 237 220 237 255 277 280 277 269 276 291 293 274 281
353 354 355 356 354 302 299 297 296 292 284 274 220 199 199 190 198 198 198 192 186 181 181 179 168 175 181 180 205 219 235 246 277 251 239 235 229 257 299 288 280 288 271 283 291 298 284
356 357 358 359 313 295 296 294 293 285 286 232 205 200 202 199 196 199 195 188 180 178 176 166 161 165 178 169 175 175 181 193 199 242 240 246 185 215 234 263 284 310 275 280 284 298 302
359 360 0 334 301 296 293 291 285 275 268 217 213 219 204 199 197 191 194 193 184 187 184 175 162 160 165 171 186 192 221 219 207 193 189 193 187 183 176 222 233 248 282 292 297 298 304
1 3 2 319 298 296 290 283 276 261 244 233 226 216 201 196 196 198 197 188 187 186 174 175 170 165 171 169 188 192 186 190 204 213 212 184 183 184 170 182 159 189 248 262 213 249 285
4 7 1 301 298 294 286 277 267 260 247 229 226 206 203 196 208 206 197 189 190 185 177 173 178 175 162 171 161 163 172 175 181 200 199 197 182 174 164 162 186 189 197 192 192 195 210
7 13 308 301 302 295 282 279 263 254 217 217 213 225 210 206 206 204 193 188 183 180 177 178 179 174 177 168 165 157 153 160 161 171 191 183 180 167 161 154 152 179 209 210 214 177 237
11 331 297 300 302 297 290 275 256 241 213 213 219 231 221 215 214 206 196 191 198 188 181 179 175 177 182 172 166 162 159 165 153 153 165 169 172 163 162 161 180 197 201 211 160 161 179
14 298 293 299 301 296 294 279 228 204 194 214 226 257 233 221 219 212 212 205 200 198 183 182 180 190 177 168 169 165 163 162 159 155 152 152 150 157 154 156 164 147 55 123 53 3 15
16 296 293 295 300 305 309 268 206 119 115 234 233 257 278 238 213 214 213 221 220 211 209 200 191 177 171 170 167 161 162 157 154 149 155 150 150 146 144 144 68 65 44 21 12 1 354